WAT886 1G4-KLAS

Flight info

Callsign WAT886
Flight time N/A
Altitude 16000
Route CROWE V562 LAS
Aircraft PC12/L-SDFGRWY/S

Departure

Time N/A
Airport 1G4

Arrival

Time 2026-05-04 01:30
Airport Harry Reid International Airport (KLAS)
Time Latitude Longitude Altitude Speed Heading
2026-05-04 00:50 35.98470 -113.81981 4659 ft 0 kts
2026-05-04 00:59 35.98473 -113.81980 4660 ft 3 kts
2026-05-04 00:59 35.98478 -113.81979 4654 ft 0 kts 11°
2026-05-04 01:00 35.98484 -113.81978 4654 ft 4 kts 26°
2026-05-04 01:00 35.98484 -113.81911 4654 ft 11 kts 102°
2026-05-04 01:00 35.98573 -113.81877 4655 ft 22 kts
2026-05-04 01:01 35.98691 -113.81857 4653 ft 5 kts 47°
2026-05-04 01:01 35.98764 -113.81816 4651 ft 22 kts
2026-05-04 01:01 35.98967 -113.81792 4644 ft 23 kts
2026-05-04 01:01 35.99107 -113.81776 4639 ft 25 kts
2026-05-04 01:02 35.99245 -113.81760 4631 ft 11 kts
2026-05-04 01:02 35.99298 -113.81726 4629 ft 7 kts 89°
2026-05-04 01:02 35.99298 -113.81720 4629 ft 0 kts 96°
2026-05-04 01:03 35.99294 -113.81675 4631 ft 13 kts 94°
2026-05-04 01:03 35.99270 -113.81620 4634 ft 4 kts 189°
2026-05-04 01:03 35.99243 -113.81625 4635 ft 0 kts 185°
2026-05-04 01:03 35.99056 -113.81645 4641 ft 55 kts 184°
2026-05-04 01:04 35.98525 -113.81704 4660 ft 95 kts 189°
2026-05-04 01:04 35.97779 -113.81793 4824 ft 121 kts 188°
2026-05-04 01:04 35.96973 -113.81885 5577 ft 106 kts 185°
2026-05-04 01:04 35.96195 -113.81922 6119 ft 115 kts 185°
2026-05-04 01:05 35.95398 -113.81988 6683 ft 113 kts 186°
2026-05-04 01:05 35.94660 -113.82247 7229 ft 116 kts 215°
2026-05-04 01:05 35.94107 -113.82989 7799 ft 123 kts 232°
2026-05-04 01:05 35.93866 -113.84100 8171 ft 147 kts 263°
2026-05-04 01:06 35.94125 -113.85364 8643 ft 157 kts 280°
2026-05-04 01:06 35.94506 -113.86647 9158 ft 159 kts 278°
2026-05-04 01:06 35.94876 -113.87956 9788 ft 162 kts 278°
2026-05-04 01:06 35.95238 -113.89249 10453 ft 162 kts 278°
2026-05-04 01:07 35.95603 -113.90559 11138 ft 161 kts 278°
2026-05-04 01:07 35.95968 -113.91862 11806 ft 161 kts 279°
2026-05-04 01:07 35.96332 -113.93180 12406 ft 161 kts 277°
2026-05-04 01:07 35.96701 -113.94506 13038 ft 162 kts 278°
2026-05-04 01:08 35.97074 -113.95840 13664 ft 166 kts 278°
2026-05-04 01:08 35.97447 -113.97183 14253 ft 168 kts 280°
2026-05-04 01:08 35.97830 -113.98556 14878 ft 170 kts 280°
2026-05-04 01:08 35.98214 -113.99940 15493 ft 172 kts 279°
2026-05-04 01:09 35.98615 -114.01405 15859 ft 191 kts 279°
2026-05-04 01:09 35.99067 -114.03084 15915 ft 219 kts 279°
2026-05-04 01:09 35.99368 -114.05002 15916 ft 236 kts 272°
2026-05-04 01:09 35.99623 -114.07067 15926 ft 249 kts 275°
2026-05-04 01:10 35.99976 -114.09180 15911 ft 253 kts 276°
2026-05-04 01:10 36.00348 -114.11326 15909 ft 257 kts 274°
2026-05-04 01:10 36.00703 -114.13493 15900 ft 258 kts 274°
2026-05-04 01:10 36.01054 -114.15668 15895 ft 260 kts 277°
2026-05-04 01:11 36.01414 -114.17855 15900 ft 260 kts 271°
2026-05-04 01:11 36.01767 -114.20024 15898 ft 258 kts 274°
2026-05-04 01:11 36.02328 -114.22146 15875 ft 270 kts 295°
2026-05-04 01:11 36.03743 -114.23731 15611 ft 275 kts 323°
2026-05-04 01:12 36.05579 -114.24712 14379 ft 298 kts 337°
2026-05-04 01:12 36.07477 -114.25394 14075 ft 265 kts 335°
2026-05-04 01:12 36.08980 -114.26575 13769 ft 259 kts 311°
2026-05-04 01:12 36.10359 -114.28088 13493 ft 271 kts 310°
2026-05-04 01:13 36.11767 -114.29705 13198 ft 280 kts 311°
2026-05-04 01:13 36.13167 -114.31379 12893 ft 276 kts 308°
2026-05-04 01:13 36.13967 -114.33348 12557 ft 243 kts 273°
2026-05-04 01:13 36.13727 -114.35261 12229 ft 220 kts 245°
2026-05-04 01:14 36.13161 -114.36996 11929 ft 210 kts 245°
2026-05-04 01:14 36.12736 -114.38728 11629 ft 215 kts 252°
2026-05-04 01:14 36.12577 -114.40495 11334 ft 205 kts 262°
2026-05-04 01:14 36.12624 -114.42265 11036 ft 208 kts 266°
2026-05-04 01:15 36.12685 -114.44052 10749 ft 207 kts 265°
2026-05-04 01:15 36.12721 -114.45836 10461 ft 208 kts 265°
2026-05-04 01:15 36.12752 -114.47629 10174 ft 207 kts 266°
2026-05-04 01:15 36.12782 -114.49434 9896 ft 211 kts 265°
2026-05-04 01:16 36.12820 -114.51228 9627 ft 205 kts 264°
2026-05-04 01:16 36.12852 -114.52982 9323 ft 205 kts 264°
2026-05-04 01:16 36.12878 -114.54748 8996 ft 204 kts 265°
2026-05-04 01:16 36.12910 -114.56506 8722 ft 205 kts 266°
2026-05-04 01:17 36.12947 -114.58281 8429 ft 206 kts 265°
2026-05-04 01:17 36.12973 -114.60044 8144 ft 205 kts 262°
2026-05-04 01:17 36.13002 -114.61801 7853 ft 206 kts 264°
2026-05-04 01:17 36.13034 -114.63580 7579 ft 206 kts 263°
2026-05-04 01:18 36.13071 -114.65329 7287 ft 201 kts 262°
2026-05-04 01:18 36.13090 -114.67064 6999 ft 204 kts 263°
2026-05-04 01:18 36.13115 -114.68829 6720 ft 205 kts 264°
2026-05-04 01:18 36.13153 -114.70560 6444 ft 202 kts 262°
2026-05-04 01:19 36.13182 -114.72319 6169 ft 206 kts 263°
2026-05-04 01:19 36.13208 -114.74087 5936 ft 203 kts 263°
2026-05-04 01:19 36.13241 -114.75787 5934 ft 201 kts 262°
2026-05-04 01:19 36.13265 -114.77531 5947 ft 205 kts 262°
2026-05-04 01:20 36.13292 -114.79285 5951 ft 202 kts 262°
2026-05-04 01:20 36.13320 -114.81025 5955 ft 202 kts 263°
2026-05-04 01:20 36.13348 -114.82773 5957 ft 204 kts 262°
2026-05-04 01:20 36.13367 -114.83956 5955 ft 203 kts 262°
2026-05-04 01:21 36.13390 -114.85687 5919 ft 205 kts 263°
2026-05-04 01:21 36.13418 -114.87476 5920 ft 205 kts 263°
2026-05-04 01:21 36.13447 -114.89168 5910 ft 191 kts 263°
2026-05-04 01:21 36.13477 -114.90731 5904 ft 172 kts 263°
2026-05-04 01:22 36.13494 -114.92168 5905 ft 164 kts 262°
2026-05-04 01:22 36.13518 -114.93571 5891 ft 166 kts 264°
2026-05-04 01:22 36.13613 -114.94998 5662 ft 161 kts 265°
2026-05-04 01:22 36.13706 -114.96307 5472 ft 144 kts 264°
2026-05-04 01:23 36.13782 -114.97452 5293 ft 125 kts 262°
2026-05-04 01:23 36.13841 -114.98485 5142 ft 117 kts 260°
2026-05-04 01:23 36.13882 -114.99489 5005 ft 117 kts 260°
2026-05-04 01:23 36.13932 -115.00499 4868 ft 116 kts 261°
2026-05-04 01:24 36.13978 -115.01480 4731 ft 111 kts 262°
2026-05-04 01:24 36.14023 -115.02417 4596 ft 109 kts 264°
2026-05-04 01:24 36.14066 -115.03378 4472 ft 115 kts 264°
2026-05-04 01:24 36.14117 -115.04346 4321 ft 105 kts 264°
2026-05-04 01:25 36.14162 -115.05206 4198 ft 99 kts 262°
2026-05-04 01:25 36.14199 -115.06055 4153 ft 99 kts 263°
2026-05-04 01:25 36.14219 -115.06897 4034 ft 96 kts 258°
2026-05-04 01:25 36.14204 -115.07695 3921 ft 91 kts 259°
2026-05-04 01:26 36.14200 -115.08438 3804 ft 83 kts 255°
2026-05-04 01:26 36.14184 -115.09154 3703 ft 85 kts 256°
2026-05-04 01:26 36.14169 -115.09919 3608 ft 91 kts 257°
2026-05-04 01:26 36.14162 -115.10686 3491 ft 84 kts 255°
2026-05-04 01:27 36.14085 -115.11341 3364 ft 73 kts 246°
2026-05-04 01:27 36.13991 -115.11989 3276 ft 82 kts 246°
2026-05-04 01:27 36.13833 -115.12699 3172 ft 83 kts 237°
2026-05-04 01:27 36.13558 -115.13252 3035 ft 72 kts 224°
2026-05-04 01:28 36.13175 -115.13671 2878 ft 77 kts 181°
2026-05-04 01:28 36.12679 -115.14000 2663 ft 80 kts 212°
2026-05-04 01:28 36.12208 -115.14345 2399 ft 78 kts 202°
2026-05-04 01:28 36.11663 -115.14699 2509 ft 95 kts 201°
2026-05-04 01:29 36.11028 -115.15034 2436 ft 100 kts 202°
2026-05-04 01:29 36.10429 -115.15386 2299 ft 92 kts 201°
2026-05-04 01:29 36.09876 -115.15705 2158 ft 85 kts 200°
2026-05-04 01:29 36.09366 -115.16000 2109 ft 76 kts 202°
2026-05-04 01:30 36.08995 -115.16204 2118 ft 30 kts 205°
2026-05-04 01:30 36.08879 -115.16271 2124 ft 27 kts 204°
2026-05-04 01:30 36.08675 -115.16390 2132 ft 32 kts 207°
2026-05-04 01:30 36.08484 -115.16526 2135 ft 29 kts 218°
2026-05-04 01:31 36.08398 -115.16638 2137 ft 9 kts 232°
2026-05-04 01:31 36.08391 -115.16649 2138 ft 0 kts 233°
2026-05-04 01:32 36.08352 -115.16706 2138 ft 20 kts 221°
2026-05-04 01:32 36.08263 -115.16833 2145 ft 19 kts 246°
2026-05-04 01:32 36.08169 -115.16923 2151 ft 12 kts 234°
2026-05-04 01:33 36.08153 -115.17028 2155 ft 11 kts 270°
2026-05-04 01:33 36.08117 -115.17061 2157 ft 11 kts 160°
2026-05-04 01:33 36.08076 -115.17060 2158 ft 1 kts 270°
2026-05-04 01:33 36.08076 -115.17061 2158 ft 0 kts 271°